Hinckley, MN

11:22 AM CST on December 05, 2019 (GMT -0600)
Hinckley

Weather History for K04W - October, 2019

Change the Weather History Date:

Monday, October 7, 2019

  Actual Average (KJMR) Record (KJMR)
Temperature  
Mean Temperature 50 °F -  
Max Temperature 64 °F 59 °F 81 °F (1980)
Min Temperature 37 °F 33 °F 13 °F (1987)
Degree Days  
Heating Degree Days 14    
Moisture  
Dew Point 40 °F    
Average Humidity 76    
Maximum Humidity 100    
Minimum Humidity 37    
Precipitation  
Precipitation 0.00 in - - ()
Sea Level Pressure  
Sea Level Pressure 30.07 in    
Wind  
Wind Speed 1 mph (WSW)    
Max Wind Speed 14 mph    
Max Gust Speed 20 mph    
Visibility 10 miles    
Events      
Averages and records for this station are not official NWS values.
T = Trace of Precipitation, MM = Missing Value Source: NWS Daily Summary

Daily Weather History Graph

Daily Weather History Graph

Search for Another Location

Airport or City:

Astronomy

Oct. 07, 2019 Rise Set
Actual Time 7:17 AM CDT 6:40 PM CDT
Civil Twilight 6:47 AM CDT 7:10 PM CDT
Nautical Twilight 6:13 AM CDT 7:44 PM CDT
Astronomical Twilight 5:38 AM CDT 8:19 PM CDT
Moon 4:24 PM CDT (10/7) 12:47 AM CDT (10/7)
Length of Visible Light 12h 22m
Length of Day
11h 22m
Waxing Gibbous, 69% of the Moon is Illuminated
Oct 7
Waxing Gibbous
Oct 13
Full
Oct 21
Last Quarter
Oct 27
New
Nov 4
First Quarter

Hourly Weather History & Observations

Time (CDT) Temp. Dew Point Humidity Pressure Visibility Wind Dir Wind Speed Gust Speed Precip Events Conditions
12:19 AM 44.6 °F 42.8 °F 93% 29.99 in 10.0 mi Calm Calm - N/A   Overcast
12:36 AM 46.4 °F 42.8 °F 87% 29.99 in 10.0 mi Calm Calm - N/A   Overcast
12:56 AM 46.4 °F 42.8 °F 87% 29.99 in 10.0 mi Calm Calm - N/A   Overcast
1:15 AM 46.4 °F 42.8 °F 87% 29.99 in 10.0 mi Calm Calm - N/A   Overcast
1:16 AM 46.4 °F 42.8 °F 87% 29.99 in 10.0 mi Calm Calm - N/A   Overcast
1:35 AM 44.6 °F 41.0 °F 87% 29.99 in 10.0 mi Calm Calm - N/A   Scattered Clouds
1:40 AM 44.6 °F 41.0 °F 87% 29.99 in 10.0 mi Calm Calm - N/A   Scattered Clouds
1:57 AM 42.8 °F 41.0 °F 93% 30.00 in 10.0 mi Calm Calm - N/A   Scattered Clouds
2:15 AM 42.8 °F 41.0 °F 93% 30.00 in 10.0 mi Calm Calm - N/A   Scattered Clouds
2:35 AM 42.8 °F 41.0 °F 93% 30.00 in 10.0 mi Calm Calm - N/A   Clear
2:36 AM 42.8 °F 41.0 °F 93% 30.00 in 10.0 mi Calm Calm - N/A   Clear
2:55 AM 42.8 °F 41.0 °F 93% 30.00 in 10.0 mi Calm Calm - N/A   Clear
2:56 AM 42.8 °F 41.0 °F 93% 30.00 in 10.0 mi Calm Calm - N/A   Clear
3:19 AM 42.8 °F 41.0 °F 93% 30.01 in 10.0 mi Calm Calm - N/A   Clear
3:36 AM 42.8 °F 41.0 °F 93% 30.01 in 10.0 mi Calm Calm - N/A   Clear
3:56 AM 42.8 °F 41.0 °F 93% 30.02 in 10.0 mi Calm Calm - N/A   Clear
4:15 AM 42.8 °F 39.2 °F 87% 30.02 in 10.0 mi Calm Calm - N/A   Clear
4:16 AM 42.8 °F 39.2 °F 87% 30.02 in 10.0 mi Calm Calm - N/A   Clear
4:35 AM 41.0 °F 37.4 °F 87% 30.03 in 10.0 mi Calm Calm - N/A   Clear
4:57 AM 41.0 °F 37.4 °F 87% 30.04 in 10.0 mi Calm Calm - N/A   Scattered Clouds
5:15 AM 41.0 °F 39.2 °F 93% 30.05 in 10.0 mi Calm Calm - N/A   Clear
5:35 AM 41.0 °F 39.2 °F 93% 30.06 in 10.0 mi Calm Calm - N/A   Clear
5:55 AM 41.0 °F 39.2 °F 93% 30.06 in 10.0 mi Calm Calm - N/A   Clear
5:56 AM 41.0 °F 39.2 °F 93% 30.06 in 10.0 mi Calm Calm - N/A   Clear
6:19 AM 37.4 °F 37.4 °F 100% 30.07 in 10.0 mi Calm Calm - N/A   Clear
6:36 AM 37.4 °F 37.4 °F 100% 30.07 in 10.0 mi Calm Calm - N/A   Clear
6:55 AM 37.4 °F 37.4 °F 100% 30.08 in 10.0 mi Calm Calm - N/A   Clear
6:56 AM 37.4 °F 37.4 °F 100% 30.08 in 10.0 mi Calm Calm - N/A   Clear
7:15 AM 37.4 °F 37.4 °F 100% 30.08 in 10.0 mi Calm Calm - N/A   Clear
7:16 AM 37.4 °F 37.4 °F 100% 30.08 in 10.0 mi Calm Calm - N/A   Clear
7:35 AM 37.4 °F 37.4 °F 100% 30.09 in 10.0 mi Calm Calm - N/A   Clear
7:57 AM 41.0 °F 41.0 °F 100% 30.10 in 10.0 mi Calm Calm - N/A   Clear
8:16 AM 42.8 °F 41.0 °F 93% 30.10 in 10.0 mi Calm Calm - N/A   Clear
8:35 AM 44.6 °F 41.0 °F 87% 30.11 in 10.0 mi Calm Calm - N/A   Clear
8:36 AM 44.6 °F 41.0 °F 87% 30.11 in 10.0 mi Calm Calm - N/A   Clear
8:55 AM 44.6 °F 42.8 °F 93% 30.12 in 10.0 mi Calm Calm - N/A   Clear
9:18 AM 46.4 °F 42.8 °F 87% 30.11 in 10.0 mi Calm Calm - N/A   Clear
9:37 AM 50.0 °F 42.8 °F 76% 30.12 in 10.0 mi Calm Calm - N/A   Clear
9:56 AM 50.0 °F 42.8 °F 76% 30.13 in 10.0 mi Calm Calm - N/A   Clear
10:15 AM 51.8 °F 42.8 °F 71% 30.13 in 10.0 mi Calm Calm - N/A   Clear
10:16 AM 51.8 °F 42.8 °F 71% 30.13 in 10.0 mi Calm Calm - N/A   Clear
10:35 AM 53.6 °F 42.8 °F 67% 30.13 in 10.0 mi Calm Calm - N/A   Clear
10:40 AM 53.6 °F 42.8 °F 67% 30.13 in 10.0 mi Calm Calm - N/A   Clear
10:57 AM 53.6 °F 42.8 °F 67% 30.13 in 10.0 mi Calm Calm - N/A   Clear
11:15 AM 55.4 °F 42.8 °F 63% 30.13 in 10.0 mi Calm Calm - N/A   Clear
11:35 AM 57.2 °F 42.8 °F 59% 30.13 in 10.0 mi Calm Calm - N/A   Clear
11:36 AM 57.2 °F 42.8 °F 59% 30.13 in 10.0 mi Calm Calm - N/A   Clear
11:55 AM 57.2 °F 41.0 °F 55% 30.13 in 10.0 mi Calm Calm - N/A   Clear
11:56 AM 57.2 °F 41.0 °F 55% 30.13 in 10.0 mi Calm Calm - N/A   Clear
12:18 PM 59.0 °F 39.2 °F 48% 30.13 in 10.0 mi Calm Calm - N/A   Clear
12:37 PM 60.8 °F 41.0 °F 48% 30.13 in 10.0 mi Calm Calm - N/A   Clear
12:56 PM 60.8 °F 41.0 °F 48% 30.13 in 10.0 mi Calm Calm - N/A   Clear
1:15 PM 60.8 °F 41.0 °F 48% 30.12 in 10.0 mi WSW 13.8 mph - N/A   Clear
1:16 PM 60.8 °F 41.0 °F 48% 30.12 in 10.0 mi WSW 13.8 mph - N/A   Clear
1:35 PM 60.8 °F 41.0 °F 48% 30.11 in 10.0 mi WSW 11.5 mph - N/A   Clear
1:39 PM 60.8 °F 41.0 °F 48% 30.11 in 10.0 mi WSW 9.2 mph - N/A   Clear
1:57 PM 62.6 °F 37.4 °F 39% 30.11 in 10.0 mi WNW 10.4 mph 19.6 mph N/A   Clear
2:15 PM 62.6 °F 35.6 °F 37% 30.10 in 10.0 mi West 5.8 mph - N/A   Clear
2:35 PM 62.6 °F 35.6 °F 37% 30.09 in 10.0 mi West 10.4 mph 16.1 mph N/A   Clear
2:36 PM 62.6 °F 35.6 °F 37% 30.09 in 10.0 mi West 9.2 mph 16.1 mph N/A   Clear
2:55 PM 62.6 °F 37.4 °F 39% 30.08 in 10.0 mi West 6.9 mph - N/A   Clear
2:56 PM 62.6 °F 37.4 °F 39% 30.08 in 10.0 mi West 6.9 mph - N/A   Clear
3:18 PM 62.6 °F 35.6 °F 37% 30.08 in 10.0 mi West 6.9 mph - N/A   Clear
3:36 PM 64.4 °F 37.4 °F 37% 30.08 in 10.0 mi WSW 9.2 mph - N/A   Clear
3:56 PM 62.6 °F 35.6 °F 37% 30.08 in 10.0 mi WNW 6.9 mph - N/A   Clear
4:15 PM 62.6 °F 37.4 °F 39% 30.08 in 10.0 mi WSW 10.4 mph - N/A   Clear
4:16 PM 62.6 °F 37.4 °F 39% 30.08 in 10.0 mi WSW 8.1 mph - N/A   Clear
4:35 PM 62.6 °F 37.4 °F 39% 30.08 in 10.0 mi West 9.2 mph - N/A   Clear
4:57 PM 62.6 °F 39.2 °F 42% 30.08 in 10.0 mi SW 6.9 mph - N/A   Clear
5:15 PM 62.6 °F 39.2 °F 42% 30.07 in 10.0 mi SW 9.2 mph - N/A   Clear
5:35 PM 60.8 °F 41.0 °F 48% 30.07 in 10.0 mi SW 6.9 mph - N/A   Clear
5:36 PM 60.8 °F 41.0 °F 48% 30.07 in 10.0 mi SW 9.2 mph - N/A   Clear
5:55 PM 59.0 °F 41.0 °F 51% 30.07 in 10.0 mi SSW 4.6 mph - N/A   Clear
5:56 PM 59.0 °F 41.0 °F 51% 30.07 in 10.0 mi SSW 4.6 mph - N/A   Clear
6:19 PM 59.0 °F 41.0 °F 51% 30.07 in 10.0 mi South 3.5 mph - N/A   Clear
6:36 PM 55.4 °F 41.0 °F 58% 30.07 in 10.0 mi South 3.5 mph - N/A   Clear
6:55 PM 53.6 °F 42.8 °F 67% 30.07 in 10.0 mi South 3.5 mph - N/A   Clear
6:56 PM 53.6 °F 42.8 °F 67% 30.07 in 10.0 mi South 3.5 mph - N/A   Clear
7:15 PM 51.8 °F 42.8 °F 71% 30.07 in 10.0 mi Calm Calm - N/A   Clear
7:16 PM 51.8 °F 42.8 °F 71% 30.07 in 10.0 mi Calm Calm - N/A   Clear
7:35 PM 46.4 °F 42.8 °F 87% 30.08 in 10.0 mi Calm Calm - N/A   Clear
7:39 PM 48.2 °F 42.8 °F 82% 30.08 in 10.0 mi Calm Calm - N/A   Clear
7:58 PM 44.6 °F 42.8 °F 93% 30.08 in 10.0 mi Calm Calm - N/A   Clear
8:35 PM 42.8 °F 42.8 °F 100% 30.07 in 10.0 mi Calm Calm - N/A   Clear
8:36 PM 42.8 °F 42.8 °F 100% 30.07 in 10.0 mi Calm Calm - N/A   Clear
8:55 PM 42.8 °F 42.8 °F 100% 30.07 in 10.0 mi Calm Calm - N/A   Clear
8:56 PM 42.8 °F 42.8 °F 100% 30.07 in 10.0 mi Calm Calm - N/A   Clear
9:18 PM 42.8 °F 41.0 °F 93% 30.07 in 10.0 mi Calm Calm - N/A   Clear
9:37 PM 41.0 °F 41.0 °F 100% 30.07 in 10.0 mi Calm Calm - N/A   Clear
9:56 PM 41.0 °F 41.0 °F 100% 30.07 in 10.0 mi Calm Calm - N/A   Clear
10:15 PM 41.0 °F 41.0 °F 100% 30.07 in 10.0 mi Calm Calm - N/A   Clear
10:16 PM 41.0 °F 41.0 °F 100% 30.07 in 10.0 mi Calm Calm - N/A   Clear
10:35 PM 39.2 °F 39.2 °F 100% 30.07 in 10.0 mi Calm Calm - N/A   Clear
10:39 PM 41.0 °F 39.2 °F 93% 30.07 in 10.0 mi Calm Calm - N/A   Clear
10:57 PM 39.2 °F 39.2 °F 100% 30.07 in 10.0 mi Calm Calm - N/A   Clear
11:16 PM 41.0 °F 41.0 °F 100% 30.06 in 10.0 mi Calm Calm - N/A   Clear
11:35 PM 41.0 °F 39.2 °F 93% 30.06 in 10.0 mi Calm Calm - N/A   Clear
11:36 PM 41.0 °F 39.2 °F 93% 30.06 in 10.0 mi Calm Calm - N/A   Clear
11:55 PM 41.0 °F 39.2 °F 93% 30.06 in 10.0 mi Calm Calm - N/A   Clear
11:56 PM 39.2 °F 39.2 °F 100% 30.06 in 10.0 mi Calm Calm - N/A   Clear